GW0919 Weather Reports


time (UTC)temp
F
wind
direction
speed
knots
gust
knots
rain 1hr
in
rain 24hr
in
rain mn
in
humidity
%
barometer
mb
20260506114536 56 284 1.7 5.2 0.00 0.09 0.03 88 1009.8
20260506113041 57 288 1.7 6.1 0.00 0.09 0.03 88 1009.7
20260506111535 57 278 1.7 7.0 0.00 0.09 0.03 89 1009.7
20260506110038 56 335 1.7 5.2 0.00 0.09 0.03 90 1009.7
20260506104536 55 269 2.6 5.2 0.00 0.14 0.03 90 1009.6
20260506103039 55 290 2.6 9.6 0.02 0.14 0.03 91 1009.6
20260506101535 55 271 1.7 7.8 0.03 0.14 0.03 94 1009.6
20260506100037 54 319 2.6 7.0 0.02 0.13 0.02 94 1009.6
20260506094538 53 277 1.7 5.2 0.02 0.13 0.02 94 1009.6
20260506093035 54 22 1.7 4.3 0.00 0.11 0.00 92 1009.4
20260506091536 54 277 0.9 3.5 0.00 0.11 0.00 91 1009.2
20260506090035 54 328 0.9 5.2 0.00 0.11 0.00 90 1009.0
20260506084539 54 293 1.7 9.6 0.00 0.11 0.00 89 1008.9
20260506083034 54 249 2.6 9.6 0.00 0.11 0.00 89 1008.9
20260506081537 53 283 2.6 7.0 0.00 0.11 0.00 91 1008.8
20260506073035 53 313 1.7 6.1 0.00 0.12 0.00 93 1008.6
20260506071536 53 244 1.7 5.2 0.00 0.12 0.00 93 1008.5
20260506061535 52 205 0.9 6.1 0.00 0.14 0.00 95 1008.2
20260506044538 51 289 0.9 3.5 0.00 0.22 0.00 96 1008.1
20260506043035 51 307 0.9 5.2 0.00 0.22 0.00 96 1008.1
20260506041537 51 285 0.0 3.5 0.00 0.22 0.00 96 1007.9
20260506040036 51 302 0.0 3.5 0.00 0.22 0.00 96 1007.9
20260506034540 51 264 0.0 2.6 0.00 0.31 0.00 96 1007.9
20260506033033 51 231 0.9 5.2 0.00 0.31 0.00 96 1007.9
20260506031536 51 270 0.0 4.3 0.00 0.31 0.00 96 1007.9
20260506030040 51 208 0.0 3.5 0.00 0.31 0.00 96 1008.0
20260506024556 51 262 0.0 2.6 0.00 0.33 0.00 96 1007.9
20260506023034 51 262 0.9 3.5 0.00 0.33 0.00 96 1007.8
20260506021534 50 257 0.0 3.5 0.00 0.33 0.00 96 1007.9
20260506020035 50 291 0.0 3.5 0.00 0.33 0.00 95 1008.0
20260506014536 51 268 0.0 2.6 0.00 0.36 0.00 95 1008.1
20260506013044 51 264 0.9 3.5 0.00 0.36 0.00 95 1008.3
20260506011535 51 221 0.0 1.7 0.00 0.36 0.00 96 1008.4
20260506010037 51 233 0.0 2.6 0.00 0.36 0.00 96 1008.7
20260506004536 51 226 0.0 1.7 0.00 0.40 0.00 95 1008.8
20260506003036 51 0 0.0 2.6 0.00 0.40 0.00 96 1008.8
20260506001538 51 247 0.0 1.7 0.00 0.40 0.00 97 1008.8
20260506000037 51 0 0.0 0.9 0.00 0.40 0.00 97 1008.9
20260505234537 50 0 0.0 0.9 0.00 0.41 0.00 97 1009.0
20260505233035 51 0 0.0 2.6 0.00 0.41 0.00 97 1009.0
20260505231537 51 0 0.0 0.0 0.00 0.41 0.00 97 1009.1
20260505230050 51 0 0.0 0.0 0.00 0.41 0.00 97 1009.4
20260505224536 50 0 0.0 0.9 0.00 0.41 0.00 97 1009.4
20260505223045 50 0 0.0 2.6 0.00 0.41 0.00 98 1009.4
20260505221537 49 0 0.0 0.9 0.00 0.41 0.00 98 1009.4
20260505220041 49 0 0.0 0.9 0.00 0.41 0.00 97 1009.3
20260505214535 49 0 0.0 0.9 0.00 0.41 0.41 97 1009.5
20260505213050 49 250 0.0 0.0 0.00 0.41 0.41 97 1009.4
20260505211535 49 0 0.0 0.9 0.00 0.41 0.41 97 1009.3
20260505210035 49 0 0.0 0.0 0.00 0.41 0.41 96 1009.4
20260505204534 49 0 0.0 0.0 0.00 0.41 0.41 96 1009.4
20260505203043 50 0 0.0 0.0 0.00 0.41 0.41 96 1009.3
20260505201538 51 0 0.0 0.9 0.00 0.41 0.41 95 1009.3
20260505200037 51 239 0.0 1.7 0.00 0.41 0.41 96 1009.2
20260505194535 51 0 0.0 0.0 0.00 0.41 0.41 96 1009.2
20260505193035 50 0 0.0 0.9 0.00 0.41 0.41 96 1009.0
20260505191534 50 0 0.0 0.0 0.00 0.41 0.41 94 1008.9
20260505190038 51 0 0.0 0.9 0.00 0.41 0.41 93 1008.7
20260505184535 52 0 0.0 0.0 0.00 0.41 0.41 92 1008.7
20260505183034 53 0 0.0 1.7 0.00 0.41 0.41 91 1008.6
20260505181535 54 221 0.0 2.6 0.00 0.41 0.41 91 1008.6
20260505180038 54 238 0.9 3.5 0.06 0.41 0.41 89 1008.3
20260505174537 55 235 1.7 7.0 0.06 0.41 0.41 89 1008.5
20260505173043 56 282 0.9 3.5 0.06 0.41 0.41 88 1008.6
20260505171537 59 236 0.0 2.6 0.04 0.40 0.40 85 1008.5
20260505164548 63 255 2.6 6.1 0.00 0.35 0.35 75 1008.2
20260505163032 63 278 1.7 6.1 0.00 0.35 0.35 77 1008.1
20260505161530 62 277 1.7 6.1 0.00 0.35 0.35 81 1008.2
20260505153048 63 338 3.5 8.7 0.00 0.35 0.35 75 1008.1
20260505151543 63 319 3.5 12.2 0.00 0.35 0.35 75 1008.0
20260505124540 63 226 2.6 12.2 0.00 0.35 0.35 76 1008.3
20260505123037 62 295 1.7 10.4 0.00 0.35 0.35 78 1008.5
20260505121537 62 297 3.5 10.4 0.00 0.35 0.35 76 1008.5
20260505120037 64 269 2.6 10.4 0.00 0.35 0.35 74 1008.5